Tracking 27122 objects as of 24-Mar-2023
HD Live streaming from Space Station
objects crossing your sky now

SSA

Track SSA now!
10-day predictions
SSA is classified as:


NORAD ID: 13844
Int'l Code: 1983-008E
Perigee: 406.8 km
Apogee: 1,664.0 km
Inclination: 63.3 °
Period: 105.7 minutes
Semi major axis: 7406 km
RCS: Unknown
Launch date: February 9, 1983
Source: United States (US)
Launch site: AIR FORCE WESTERN TEST RANGE (AFWTR)
Your satellite tracking list
Your tracking list is empty




NASA's NSSDC Master Catalog

Two Line Element Set (TLE):
1 13844U 83008E   23083.19490682  .00024463  00000-0  22380-2 0  9990
2 13844  63.3070   7.5761 0848750 113.7850 255.4492 13.62041812196931
Source of the keplerian elements: McCants